Regional Weather Roundup
Issued by NWS

Home | Current Version | Previous Version | Text Only | Print | Product List | Glossary Off
Versions: 1 2 3 4 5 6 7 8 9 10 11 12 13 14 15 16 17 18 19 20 21 22 23 24 25 26 27 28 29 30 31 32 33 34 35 36 37 38 39 40 41 42 43 44 45 46 47 48 49 50

000
ASUS43 KLOT 290906
RWRIL

ILLINOIS REGIONAL WEATHER ROUNDUP
NATIONAL WEATHER SERVICE CHICAGO/ROMEOVILLE IL
400 AM CDT FRI AUG 29 2014

NOTE: "FAIR" INDICATES FEW OR NO CLOUDS BELOW 12,000 FEET WITH NO
SIGNIFICANT WEATHER AND/OR OBSTRUCTIONS TO VISIBILITY.

* THESE STATIONS ARE NOT UNDER NWS QUALITY CONTROL. THEY ALSO MAY NOT
  REPORT WEATHER SUCH AS PRECIPITATION OR FOG.

ILZ001-002-007-009-015-016-024-291000-
NORTHWEST ILLINOIS

CITY           SKY/WX    TMP DP  RH WIND       PRES   REMARKS
MOLINE         MOCLDY    70  67  90 SE3       29.92F
STERLING*      MOCLDY    66  64  94 CALM      29.95S
SAVANNA*       PTCLDY    67  65  93 CALM      29.94S FOG
$$

ILZ003-004-008-010-011-017-018-291000-
NORTH CENTRAL ILLINOIS

CITY           SKY/WX    TMP DP  RH WIND       PRES   REMARKS
ROCKFORD       MOCLDY    67  65  93 S6        29.97S FOG
FREEPORT*      PTCLDY    64  63  96 SE3       29.97S FOG
ROCHELLE*      PTCLDY    67  65  95 S3        29.96S FOG
DE KALB*       MOCLDY    66  65  95 SE8       29.98S FOG
PERU*          MOCLDY    70  69  96 SE5       29.96S
$$

ILZ005-006-012>014-019>023-291000-
NORTHEAST ILLINOIS

CITY           SKY/WX    TMP DP  RH WIND       PRES   REMARKS
CHICAGO-OHARE  CLOUDY    71  63  75 S7        29.97S
CHICAGO-MIDWAY CLOUDY    73  66  78 S7        29.97F
AURORA         CLOUDY    69  66  90 SE5       29.97F FOG
LANSING*       CLOUDY    70  64  81 SE7       29.99S
JOLIET*        CLOUDY    68  65  91 SE3       29.98S
WAUKEGAN       CLOUDY    71  65  81 SE5       29.97S
DUPAGE AIRPORT CLOUDY    70  66  87 S7        29.97F
KANKAKEE*      CLOUDY    70  67  90 SE7       29.99S
WHEELING       CLOUDY    72  65  78 S8        29.99R
MORRIS*        CLOUDY    69  69 100 CALM      29.97S
ROMEOVILLE*    CLOUDY    68  67  96 S5        29.98S
NORTHERLY ISL    N/A     71  63  75 SE8         N/A
$$

LMZ740>746-291000-
SOUTHERN LAKE MICHIGAN

STATION/POSITION SKY/WX   TEMP    WIND        PRES    VSBY  WAVE
                          AIR SEA DIR/SP/G                  HT/PER
                          (F)     (DEG/KT/KT) (MB)    (MI)  (FT/S)
SOUTHERN BUOY              69 69  120/ 10/ 12 1015.8F         2/ 5
WAUKEGAN HARBOR            72     180/  8/  9   N/A
HARRISON CRIB              72     170/ 19/ 22   N/A
BURNHAM HARBOR             71     170/  8/ 11   N/A
CALUMET HARBOR             71     150/  8/ 11 1013.9F
MICHIGAN CITY              70     130/ 11/ 15   N/A
MICHIGAN CITY 6N           71 72  150/ 14/ 17   N/A           2/ 2
ST. JOSEPH                 70 70  150/ 14/ 17   N/A           1/ 2
$$

ILZ025>027-034>036-040-047-049-050-058-095>099-291000-
WEST-CENTRAL ILLINOIS

CITY           SKY/WX    TMP DP  RH WIND       PRES   REMARKS
QUINCY         PTCLDY    72  69  90 SE6       29.93F
GALESBURG*     MOCLDY    68  67  96 SE3       29.94S
MACOMB*        MOCLDY    69  68  97 S6        29.96F
JACKSONVILLE*  PTCLDY    73  70  92 SE7       29.96S
PITTSFIELD*    PTCLDY    72  69  90 SE6       29.95F
$$

ILZ028>032-037-038-041>044-048-051>054-059>061-291000-
CENTRAL ILLINOIS

CITY           SKY/WX    TMP DP  RH WIND       PRES   REMARKS
PONTIAC        MOCLDY    70  70 100 CALM      29.97S FOG
DECATUR        MOCLDY    71  69  93 SE5       29.98S
PEORIA         PTCLDY    71  67  87 S5        29.95F
LACON*         MOCLDY    69  67  93 CALM      29.94S
LINCOLN*       MOCLDY    71  69  94 CALM      29.93F
SPRINGFIELD    MOCLDY    72  69  90 SE6       29.95F
TAYLORVILLE    CLOUDY    70  70 100 CALM      29.97S
$$

ILZ033-039-045-046-055>057-062-063-291000-
EAST-CENTRAL ILLINOIS

CITY           SKY/WX    TMP DP  RH WIND       PRES   REMARKS
CHAMPAIGN      MOCLDY    71  69  93 E7        29.98F
DANVILLE*      CLOUDY    69  67  92 SE5       29.98S
RANTOUL*       CLOUDY    73  68  86 SE7       29.99F
MATTOON        MOCLDY    70  69  97 SE5       29.98F
PARIS*         CLOUDY    69  69  98 E3        30.00F
$$

ILZ079-100>102-291000-
SOUTHWEST ILLINOIS

CITY           SKY/WX    TMP DP  RH WIND       PRES   REMARKS
BELLEVILLE     MOCLDY    72  72 100 NE5       29.95F
CAHOKIA*       PTCLDY    73  71  93 SE3       29.95F
SPARTA*        CLEAR     71  70  98 E3        29.97F FOG
$$

ILZ064>066-069>071-074>076-080>082-084>086-088>090-092>094-291000-
SOUTH-CENTRAL ILLINOIS

CITY           SKY/WX    TMP DP  RH WIND       PRES   REMARKS
CARBONDALE     CLEAR     70  68  93 SE3       29.96F FOG
CAIRO*         CLEAR     72  69  92 NE5       29.95F FOG
EFFINGHAM*     RAIN      72  69  90 E3        29.98S
MARION         CLEAR     73  72  94 SE3       29.97F FOG
MT. VERNON     MOCLDY    73  68  83 CALM      29.98F
CENTRALIA*     CLOUDY    71  69  92 CALM      29.97F FOG
SALEM*         CLOUDY    74  73  96 CALM      29.98S FOG
METROPOLIS*      N/A     71  71 100 CALM      29.96S FOG
$$

ILZ067-068-072-073-078-083-087-091-291000-
SOUTHEAST ILLINOIS

CITY           SKY/WX    TMP DP  RH WIND       PRES   REMARKS
LAWRENCEVILLE  MOCLDY    74  72  93 NE5       29.98F FOG
FLORA*         MOCLDY    73  71  95 CALM      29.98S FOG
FAIRFIELD*     MOCLDY    73  72  94 CALM      29.97F
HARRISBURG*    FOG       71  71 100 CALM      29.99S VSB 1
ROBINSON*      CLOUDY    75  73  93 E6        29.99F
CARMI*         PTCLDY    72  71  98 CALM      29.97F FOG
$$

ABBREVIATIONS USED IN REMARKS
   TC - TEMPERATURE IN CELSIUS
  WCI - WIND CHILL INDEX
   HX - HEAT INDEX
  VSB - VISIBILITY
$$




USA.gov is the U.S. government's official web portal to all federal, state and local government web resources and services.